Theta_e
288 289 289 287 288 289 287 288 287 290 290 294 296 297 297 298 299 298 299 299 300 302 304 307 307 307 306 305 303 302 300 300 300 301 301 300 300 299 299 299 299 299 298 298
283 287 287 285 287 288 288 289 289 291 291 298 299 298 297 297 296 296 297 299 300 301 303 303 303 303 303 302 301 301 299 299 300 300 299 299 298 298 298 298 298 298 298 298
281 284 284 281 285 286 288 290 289 286 291 296 295 295 295 296 296 296 297 299 300 300 302 303 302 302 301 301 300 299 298 299 299 298 297 298 298 297 297 297 297 297 297 297
282 283 276 287 289 289 288 290 292 291 293 294 294 296 296 296 295 296 297 298 300 301 302 303 303 302 301 300 298 298 298 298 297 297 296 297 297 296 296 296 295 295 294 294
280 280 284 286 286 286 285 287 292 291 293 294 294 292 293 295 295 296 296 298 300 302 302 303 303 302 300 298 297 297 297 297 296 297 296 296 295 295 295 294 294 293 292 292
283 278 277 286 287 290 289 283 291 291 291 291 291 290 292 295 296 297 298 298 298 300 301 302 302 302 299 297 296 296 296 296 297 297 296 295 294 293 294 293 292 292 291 291
281 280 283 290 289 289 282 285 290 291 292 291 292 293 295 296 296 297 296 297 298 298 299 300 302 301 298 297 295 297 297 297 296 296 295 294 294 293 292 291 291 290 289 289
281 279 277 292 287 284 289 291 293 292 292 292 293 294 294 295 295 296 296 296 296 297 297 299 300 299 297 296 298 298 297 296 295 295 293 292 292 291 291 290 289 288 288 287
284 284 291 292 290 292 292 292 293 293 294 293 293 293 294 294 295 295 295 295 296 296 296 297 298 298 296 297 297 296 295 294 293 293 291 291 290 289 288 288 287 287 286 286
285 289 290 290 293 294 295 293 294 295 294 294 293 294 294 295 295 295 296 295 295 294 294 294 295 295 296 297 296 295 293 292 291 290 289 289 290 289 287 287 286 285 285 285
286 289 290 290 293 295 294 293 293 294 294 293 293 293 294 294 295 295 295 295 294 293 294 294 294 294 295 297 296 293 292 290 289 289 288 288 289 288 287 288 287 285 286 286
284 291 290 292 295 291 291 291 293 292 292 294 294 293 294 293 295 295 295 295 294 294 294 294 294 293 294 294 294 292 290 289 289 288 288 287 287 286 289 290 290 290 290 289
289 293 293 291 291 290 290 291 291 291 292 292 293 293 293 292 293 294 293 294 293 293 294 294 293 292 293 292 292 291 289 288 288 288 287 286 286 285 285 287 289 289 289 290
289 289 289 288 288 290 290 290 291 290 291 291 291 292 292 291 292 292 292 293 293 293 293 293 292 291 292 291 291 290 289 289 287 287 286 286 287 288 287 285 283 284 288 289
287 288 288 289 290 289 290 291 290 291 291 292 292 291 291 290 290 290 290 290 291 290 291 291 290 290 290 289 288 287 286 286 287 288 289 289 288 287 285 283 283 283 284 286
286 288 288 288 288 289 289 289 288 288 288 288 290 290 289 289 288 288 289 288 287 287 287 288 288 288 288 288 287 287 287 289 289 288 288 287 285 284 283 283 282 282 282 283
284 283 284 284 284 284 285 285 285 285 286 286 288 288 289 289 288 287 287 288 288 287 287 286 285 286 287 288 289 288 288 287 288 287 286 285 284 283 283 282 282 282 282 284
286 285 285 285 284 283 283 284 284 284 284 287 289 288 287 286 285 285 285 286 286 286 286 287 288 288 288 288 287 287 287 287 286 286 285 284 283 283 283 282 282 282 283 283
284 284 286 286 286 286 286 286 287 287 287 286 287 286 286 286 285 285 286 286 286 285 287 288 287 288 287 287 287 287 287 285 284 283 283 284 284 284 283 282 282 282 282 282
281 282 282 282 282 281 281 283 286 286 286 287 287 287 285 285 285 285 286 285 286 285 286 288 288 288 288 287 288 286 283 283 282 282 282 281 282 282 282 283 282 282 282 282
279 280 280 280 280 281 281 282 281 281 282 282 281 281 280 282 283 284 282 282 284 285 285 285 284 284 284 284 285 284 284 283 282 281 281 281 282 282 281 282 282 282 282 282
278 278 279 279 279 279 280 281 280 280 280 281 281 281 281 281 282 282 282 281 284 286 285 285 285 286 285 286 285 284 283 283 282 282 282 282 281 281 281 282 282 282 282 282
278 278 278 278 278 278 280 280 279 279 279 279 279 279 279 280 281 280 279 283 284 284 284 284 286 286 286 285 285 284 284 283 282 282 282 282 282 282 282 282 282 282 282 282
277 278 278 278 279 279 278 279 279 279 280 280 280 280 279 279 280 282 283 283 283 283 282 283 284 285 285 284 284 284 284 284 284 284 283 284 283 283 283 282 282 283 283 283
277 278 278 277 277 277 278 279 278 279 279 279 280 280 280 281 280 280 281 281 282 282 281 283 284 284 283 283 283 283 283 284 284 284 283 283 283 282 283 282 282 282 282 282
277 277 277 277 277 277 278 278 277 278 278 277 278 279 280 280 280 280 280 281 280 281 280 281 281 281 281 281 281 281 281 282 282 282 282 282 282 281 281 281 281 281 282 282
277 279 277 277 278 278 277 277 277 276 277 277 276 278 278 278 279 279 279 278 278 278 278 279 279 279 279 279 279 280 280 280 281 281 281 280 280 281 281 281 281 281 281 280
Wind_Speed
17 17 13 14 13 16 19 22 16 18 17 18 16 11 6 6 9 9 5 5 8 10 10 11 12 12 12 12 12 13 13 11 11 9 9 8 8 8 8 7 6 6 6 5
7 14 14 17 19 21 20 23 25 23 26 22 19 15 12 10 9 10 10 8 9 11 13 14 13 13 12 13 13 12 12 10 9 9 9 9 9 8 8 7 7 6 6 6
7 2 7 13 21 24 21 21 21 20 23 17 13 9 8 8 6 7 7 6 8 11 12 12 13 13 13 12 12 11 11 10 11 10 10 10 9 9 8 8 7 6 6 5
6 3 9 2 2 2 15 20 19 19 19 14 12 8 9 9 11 10 8 6 7 9 11 12 13 14 13 13 12 11 11 12 12 12 11 10 10 9 8 7 7 6 6 5
6 11 14 17 5 6 8 7 19 18 13 11 6 3 2 3 3 5 7 7 4 5 9 11 13 13 13 13 14 14 14 13 13 12 12 11 10 10 8 7 7 6 5 5
7 7 8 3 3 2 2 5 5 3 3 3 4 4 6 1 4 4 3 1 2 3 4 8 11 12 13 13 14 15 13 13 13 12 12 12 11 10 8 7 7 5 6 5
13 11 7 4 7 4 4 4 4 3 4 3 1 5 3 4 2 2 3 4 3 3 4 6 8 11 13 13 15 12 12 12 12 12 11 11 10 9 9 7 7 6 7 6
10 9 15 7 6 6 4 6 6 3 2 2 3 5 5 5 5 4 3 3 2 3 4 5 6 10 12 14 11 12 12 12 12 11 8 8 10 8 8 8 7 7 7 5
9 7 4 7 5 6 6 5 5 4 3 2 5 5 5 4 4 4 4 3 2 4 4 5 7 8 11 10 11 12 12 12 12 11 10 10 11 10 8 7 6 6 5 5
1 6 7 3 3 4 7 6 7 6 8 8 10 9 9 7 6 4 4 5 4 4 5 6 7 9 9 10 10 11 12 12 11 12 11 10 8 8 7 7 6 5 5 5
7 10 5 6 1 10 7 5 6 7 6 5 6 10 10 9 8 6 4 3 4 5 6 6 6 8 9 8 10 10 10 10 10 8 10 9 7 7 7 7 6 6 4 5
7 8 5 12 12 6 9 10 10 9 10 9 7 7 8 8 9 8 8 5 4 6 6 5 6 8 9 8 10 11 11 9 9 8 8 7 7 5 3 7 8 5 4 4
11 11 9 6 4 9 6 8 8 8 9 11 10 8 8 8 7 7 8 8 6 6 5 5 5 7 7 8 10 10 9 10 8 9 8 8 7 7 6 5 8 10 9 12
7 6 2 7 5 10 9 8 7 7 6 6 8 7 7 8 7 6 6 6 6 5 4 4 5 6 6 7 8 7 7 11 8 7 7 7 6 5 4 4 4 3 12 13
12 6 5 5 5 8 8 6 7 6 6 6 5 5 6 7 8 8 8 6 4 3 2 1 3 4 5 6 6 7 7 6 6 6 6 5 4 3 3 3 4 4 3 6
8 8 9 10 10 11 10 9 8 9 9 8 7 5 6 5 6 7 9 9 6 6 5 2 1 4 4 6 7 7 7 13 8 5 4 3 3 3 4 5 5 5 5 5
5 7 10 11 10 11 11 10 9 9 9 9 7 6 7 6 6 7 7 7 7 6 6 7 7 6 6 7 6 5 4 3 3 3 3 3 4 5 6 5 6 6 6 6
7 7 8 7 9 10 11 12 11 12 11 9 8 7 7 7 7 6 6 6 6 5 5 4 4 4 4 4 3 2 2 3 3 3 3 4 6 6 6 6 7 7 6 6
10 10 10 11 11 10 10 11 11 11 11 10 9 10 9 8 6 5 4 4 4 4 3 1 1 0 1 2 3 2 1 2 3 4 5 8 6 6 6 7 7 7 7 6
12 12 12 11 11 11 10 10 9 9 9 9 9 8 7 6 5 5 5 6 4 2 2 3 4 4 5 5 10 4 5 6 7 7 6 7 7 7 7 10 8 7 7 7
13 12 12 12 10 10 10 9 9 9 9 8 7 6 5 5 4 4 4 3 3 3 4 6 5 4 3 5 6 6 6 7 7 7 7 7 7 7 7 7 7 7 7 7
9 9 9 10 9 8 8 8 8 8 8 7 6 6 6 6 5 4 5 5 4 7 4 3 3 5 5 8 4 5 6 6 6 6 6 6 6 6 7 6 7 7 7 7
5 6 6 7 7 7 6 5 6 7 7 7 7 7 6 5 5 5 5 4 5 7 5 5 7 9 11 5 5 6 6 7 6 7 7 6 6 6 7 7 7 7 7 7
8 8 7 8 7 5 7 8 7 7 6 6 5 5 5 5 5 4 4 9 12 10 8 8 10 13 14 6 6 6 6 6 6 6 7 11 6 6 7 7 7 7 7 10
6 7 7 8 8 7 8 8 9 7 7 7 7 6 6 4 5 7 7 7 12 11 8 12 14 14 7 6 7 7 6 6 6 6 7 7 7 7 7 7 7 7 7 7
9 7 7 8 7 7 7 7 7 7 7 7 7 6 7 6 7 8 7 11 8 11 7 7 6 7 7 7 7 8 7 7 8 7 8 7 7 7 7 7 7 7 7 7
6 9 6 6 5 6 6 7 7 7 8 7 9 8 9 8 8 10 11 8 8 7 7 7 6 8 7 7 8 8 8 7 10 7 6 6 6 6 7 7 7 7 6 6
Wind_Direction
259 270 256 261 258 227 223 235 244 253 251 261 252 267 303 291 277 274 262 218 211 209 199 195 187 182 178 170 166 168 171 173 173 167 174 168 164 168 165 167 162 156 153 149
260 253 255 251 249 249 236 238 245 258 269 266 275 279 275 264 247 257 272 249 214 208 203 195 189 185 178 172 173 173 173 169 162 165 169 167 168 168 165 163 161 163 165 159
261 141 263 258 237 230 237 232 234 242 244 270 274 251 268 272 257 251 264 261 221 216 209 196 190 184 182 174 170 174 166 169 169 170 171 173 170 171 170 170 165 170 164 165
268 246 241 276 146 135 222 239 236 248 261 273 295 293 308 294 285 280 274 254 239 215 210 201 192 188 180 173 171 174 174 177 173 175 176 172 172 174 170 171 173 169 164 162
235 234 273 305 166 182 182 238 228 240 252 274 296 316 189 10 351 312 298 297 302 242 214 205 199 190 181 178 177 182 183 178 175 178 175 171 174 176 172 172 172 167 157 161
208 241 238 67 125 149 102 236 143 187 164 168 176 204 98 85 346 347 15 328 273 257 230 209 199 191 190 186 184 191 183 178 179 177 175 176 175 174 167 171 167 161 165 175
226 245 262 326 144 155 249 69 113 115 112 145 120 38 2 323 338 336 341 343 338 275 233 217 195 187 197 194 200 185 178 175 175 177 178 174 170 167 160 164 156 170 174 178
218 249 250 185 125 219 67 72 91 113 91 20 330 320 320 327 328 329 325 316 298 274 237 219 208 194 200 207 186 176 173 173 172 172 171 169 164 157 167 164 173 178 177 174
206 209 63 188 50 89 23 21 13 358 60 320 291 292 299 293 292 299 303 306 269 243 248 228 219 206 211 204 182 173 170 169 170 168 166 168 166 165 166 172 176 179 177 183
146 231 216 229 250 307 1 354 347 328 316 320 314 323 318 313 301 285 262 260 246 234 226 220 213 215 221 199 174 171 174 173 170 170 165 166 169 168 169 173 178 172 170 186
242 274 239 192 70 349 352 8 346 335 327 298 298 294 300 305 305 302 290 267 230 245 247 241 203 212 214 187 167 177 174 167 164 164 168 164 175 173 178 173 172 166 178 187
250 282 21 309 327 15 353 344 334 328 320 324 326 301 305 294 298 302 302 297 262 259 259 245 205 205 201 166 180 178 174 167 166 162 167 165 163 141 78 118 165 188 181 183
257 294 306 292 356 41 357 332 328 316 304 303 307 312 310 300 303 313 303 299 287 276 261 246 205 206 187 185 184 185 175 163 160 166 166 166 165 160 158 184 206 215 219 227
44 349 257 59 347 335 331 331 320 298 294 304 314 322 319 318 318 316 316 325 321 301 267 240 209 202 173 179 184 172 156 159 160 163 154 149 146 149 152 175 183 221 227 224
15 14 346 333 359 3 359 358 346 353 2 351 343 338 347 341 345 354 357 353 347 320 302 263 208 184 158 171 156 146 135 136 128 118 115 125 138 153 177 183 211 217 171 210
348 30 26 31 20 11 11 5 357 350 349 345 337 8 7 16 32 31 22 14 17 32 33 30 86 94 128 129 122 116 114 120 114 112 121 141 160 172 203 213 212 213 215 221
25 21 19 25 13 11 15 11 7 2 359 4 12 43 36 15 25 24 22 21 44 51 47 73 86 89 101 107 101 98 101 105 149 141 161 174 177 204 217 210 213 216 222 211
58 57 51 39 29 27 27 25 23 20 18 21 38 36 37 40 42 39 37 38 46 44 44 59 84 85 82 91 85 110 156 162 164 176 182 199 217 217 211 213 217 220 224 212
43 44 39 40 35 39 35 27 26 29 28 26 31 31 27 27 26 32 24 21 21 9 40 137 224 160 165 185 163 163 198 219 223 230 233 233 231 222 220 218 220 220 219 209
39 38 37 37 34 29 24 18 16 22 20 18 17 31 32 25 11 357 350 342 348 17 28 174 208 226 228 219 215 214 223 224 224 224 222 221 225 227 228 224 223 220 216 214
29 24 24 22 20 26 21 15 11 14 8 11 10 10 357 343 325 312 302 299 322 333 297 271 249 248 237 239 234 233 231 225 227 231 228 229 230 227 227 225 222 224 224 224
16 13 10 11 10 9 8 7 7 360 0 360 358 352 341 326 329 305 276 261 310 334 314 287 274 272 278 273 249 238 232 231 233 231 234 232 232 230 229 224 224 227 223 222
9 12 5 3 351 335 329 360 352 345 340 342 336 334 327 313 304 307 308 358 344 319 311 292 286 289 287 273 253 246 239 238 236 235 234 230 231 229 227 226 228 228 227 226
355 355 346 344 335 332 341 341 337 325 325 319 310 315 311 314 305 294 300 306 309 310 300 292 293 294 293 277 266 257 249 247 243 239 240 240 234 231 233 234 236 234 234 238
334 326 329 341 333 331 326 329 326 322 327 324 319 317 313 304 295 307 307 301 301 306 299 298 299 296 284 275 271 268 265 258 252 247 247 243 239 239 239 236 235 235 236 236
330 326 318 316 307 314 315 315 314 318 320 315 313 313 315 306 299 299 298 296 298 296 293 297 295 294 288 285 279 275 271 269 267 263 259 251 245 242 243 239 240 238 241 239
308 310 309 311 313 313 307 305 310 308 311 307 305 309 305 302 303 304 302 300 299 299 298 295 294 294 288 284 282 281 279 276 272 268 257 256 255 254 248 238 238 237 238 237